Previsão horária em Plishkino

Hoje, 6 Março, Sábado

Tempo Temperatura Precipitação Vento Pressão Humidade
00:00 -7°C° 0 mm 1 m/s 746 mmHg 94%
01:00 -7°C° 0 mm 1 m/s 746 mmHg 94%
02:00 -7°C° 0 mm 1 m/s 747 mmHg 93%
03:00 -8°C° 0 mm 1 m/s 747 mmHg 93%
04:00 -8°C° 0 mm 1 m/s 747 mmHg 93%
05:00 -8°C° 0 mm 1 m/s 747 mmHg 94%
06:00 -8°C° 0 mm 1 m/s 747 mmHg 94%
07:00 -8°C° 0 mm 1 m/s 747 mmHg 94%
08:00 -7°C° 0 mm 1 m/s 747 mmHg 94%
09:00 -6°C° 0 mm 1 m/s 747 mmHg 93%
10:00 -4°C° 0 mm 1 m/s 747 mmHg 92%
11:00 -4°C° 0 mm 1 m/s 747 mmHg 91%
12:00 -3°C° 0 mm 1 m/s 747 mmHg 90%
13:00 -3°C° 0 mm 1 m/s 747 mmHg 89%
14:00 -3°C° 0 mm 1 m/s 746 mmHg 89%
15:00 -2°C° 0 mm 1 m/s 746 mmHg 88%
16:00 -3°C° 0 mm 1 m/s 746 mmHg 90%
17:00 -4°C° 0 mm 1 m/s 746 mmHg 93%
18:00 -4°C° 0 mm 1 m/s 746 mmHg 95%
19:00 -6°C° 0.2 mm 1 m/s 746 mmHg 95%
20:00 -6°C° 0.2 mm 1 m/s 746 mmHg 96%
21:00 -7°C° 0.2 mm 2 m/s 747 mmHg 96%
22:00 -8°C° 0.2 mm 2 m/s 747 mmHg 96%
23:00 -9°C° 0.2 mm 3 m/s 747 mmHg 96%

Amanhã, 7 Março, Domingo

Tempo Temperatura Precipitação Vento Pressão Humidade
00:00 -10°C° 0.2 mm 3 m/s 747 mmHg 95%
01:00 -12°C° 0 mm 3 m/s 747 mmHg 95%
02:00 -13°C° 0 mm 3 m/s 747 mmHg 94%
03:00 -14°C° 0 mm 3 m/s 747 mmHg 94%
04:00 -15°C° 0 mm 3 m/s 747 mmHg 93%
05:00 -15°C° 0 mm 3 m/s 748 mmHg 93%
06:00 -15°C° 0 mm 3 m/s 748 mmHg 93%
07:00 -15°C° 0 mm 4 m/s 748 mmHg 91%
08:00 -14°C° 0 mm 4 m/s 747 mmHg 90%
09:00 -12°C° 0 mm 5 m/s 747 mmHg 88%
10:00 -11°C° 0 mm 5 m/s 747 mmHg 84%
11:00 -10°C° 0 mm 6 m/s 746 mmHg 81%
12:00 -8°C° 0 mm 7 m/s 746 mmHg 77%
13:00 -8°C° 0 mm 7 m/s 745 mmHg 76%
14:00 -7°C° 0 mm 7 m/s 744 mmHg 76%
15:00 -7°C° 0 mm 7 m/s 743 mmHg 75%
16:00 -7°C° 0 mm 7 m/s 742 mmHg 74%
17:00 -7°C° 0 mm 7 m/s 741 mmHg 73%
18:00 -7°C° 0 mm 7 m/s 740 mmHg 73%
19:00 -7°C° 0.1 mm 8 m/s 740 mmHg 78%
20:00 -8°C° 0.1 mm 9 m/s 739 mmHg 84%
21:00 -8°C° 0.1 mm 9 m/s 739 mmHg 89%
22:00 -7°C° 0.4 mm 8 m/s 738 mmHg 89%
23:00 -6°C° 0.4 mm 6 m/s 738 mmHg 89%

Depois de amanhã, 8 Março, Segunda-feira

Tempo Temperatura Precipitação Vento Pressão Humidade
00:00 -7°C° 0.4 mm 5 m/s 738 mmHg 89%
01:00 -7°C° 0.1 mm 4 m/s 738 mmHg 89%
02:00 -7°C° 0.1 mm 3 m/s 738 mmHg 89%
03:00 -8°C° 0.1 mm 3 m/s 738 mmHg 88%
04:00 -8°C° 0.2 mm 3 m/s 738 mmHg 91%
05:00 -7°C° 0.2 mm 2 m/s 738 mmHg 93%
06:00 -7°C° 0.2 mm 2 m/s 737 mmHg 96%
07:00 -7°C° 0.2 mm 4 m/s 737 mmHg 95%
08:00 -6°C° 0.2 mm 6 m/s 737 mmHg 94%
09:00 -6°C° 0.2 mm 7 m/s 737 mmHg 93%
10:00 -6°C° 0.4 mm 8 m/s 737 mmHg 90%
11:00 -6°C° 0.4 mm 8 m/s 737 mmHg 88%
12:00 -6°C° 0.4 mm 9 m/s 737 mmHg 85%
13:00 -8°C° 0 mm 9 m/s 737 mmHg 81%
14:00 -8°C° 0 mm 8 m/s 738 mmHg 77%
15:00 -10°C° 0 mm 8 m/s 738 mmHg 73%
16:00 -11°C° 0 mm 7 m/s 739 mmHg 77%
17:00 -12°C° 0 mm 7 m/s 739 mmHg 80%
18:00 -12°C° 0 mm 6 m/s 740 mmHg 84%
19:00 -12°C° 0 mm 6 m/s 741 mmHg 86%
20:00 -13°C° 0 mm 5 m/s 742 mmHg 87%
21:00 -13°C° 0 mm 5 m/s 742 mmHg 89%
22:00 -14°C° 0 mm 5 m/s 743 mmHg 89%
23:00 -14°C° 0 mm 5 m/s 743 mmHg 89%

9 Março, Terça-feira

Tempo Temperatura Precipitação Vento Pressão Humidade
00:00 -14°C° 0 mm 4 m/s 743 mmHg 89%
01:00 -15°C° 0 mm 4 m/s 743 mmHg 90%
02:00 -16°C° 0 mm 4 m/s 744 mmHg 90%
03:00 -16°C° 0 mm 4 m/s 744 mmHg 91%
04:00 -15°C° 0 mm 3 m/s 744 mmHg 92%
05:00 -16°C° 0 mm 3 m/s 744 mmHg 92%
06:00 -16°C° 0 mm 3 m/s 745 mmHg 93%
07:00 -15°C° 0 mm 3 m/s 745 mmHg 93%
08:00 -15°C° 0 mm 3 m/s 745 mmHg 93%
09:00 -14°C° 0 mm 3 m/s 745 mmHg 93%
10:00 -13°C° 0 mm 3 m/s 746 mmHg 92%
11:00 -12°C° 0 mm 3 m/s 746 mmHg 91%
12:00 -10°C° 0 mm 3 m/s 746 mmHg 90%
13:00 -10°C° 0 mm 3 m/s 746 mmHg 89%
14:00 -10°C° 0 mm 3 m/s 746 mmHg 87%
15:00 -10°C° 0 mm 3 m/s 746 mmHg 86%
16:00 -12°C° 0 mm 3 m/s 747 mmHg 87%
17:00 -13°C° 0 mm 3 m/s 747 mmHg 89%
18:00 -14°C° 0 mm 3 m/s 747 mmHg 91%
19:00 -15°C° 0 mm 3 m/s 748 mmHg 92%
20:00 -16°C° 0 mm 3 m/s 748 mmHg 93%
21:00 -17°C° 0 mm 3 m/s 749 mmHg 93%
22:00 -18°C° 0 mm 3 m/s 749 mmHg 94%
23:00 -19°C° 0 mm 3 m/s 750 mmHg 94%

10 Março, Quarta-feira

Tempo Temperatura Precipitação Vento Pressão Humidade
00:00 -21°C° 0 mm 3 m/s 750 mmHg 94%
01:00 -21°C° 0 mm 3 m/s 750 mmHg 94%
02:00 -21°C° 0 mm 3 m/s 751 mmHg 95%
03:00 -22°C° 0 mm 3 m/s 751 mmHg 95%
04:00 -22°C° 0 mm 3 m/s 751 mmHg 95%
05:00 -20°C° 0 mm 2 m/s 751 mmHg 95%
06:00 -20°C° 0 mm 2 m/s 751 mmHg 95%
07:00 -21°C° 0 mm 3 m/s 751 mmHg 94%
08:00 -18°C° 0 mm 3 m/s 751 mmHg 92%
09:00 -17°C° 0 mm 3 m/s 751 mmHg 91%
10:00 -15°C° 0 mm 3 m/s 750 mmHg 89%
11:00 -14°C° 0 mm 4 m/s 750 mmHg 87%
12:00 -12°C° 0 mm 5 m/s 750 mmHg 85%
13:00 -11°C° 0 mm 5 m/s 750 mmHg 84%
14:00 -11°C° 0 mm 6 m/s 750 mmHg 84%
15:00 -10°C° 0 mm 6 m/s 749 mmHg 83%
16:00 -10°C° 0 mm 5 m/s 749 mmHg 86%
17:00 -9°C° 0 mm 3 m/s 749 mmHg 88%
18:00 -9°C° 0 mm 2 m/s 749 mmHg 90%
19:00 -9°C° 0 mm 2 m/s 749 mmHg 90%
20:00 -9°C° 0 mm 2 m/s 749 mmHg 91%
21:00 -10°C° 0 mm 2 m/s 750 mmHg 91%
22:00 -10°C° 0 mm 2 m/s 750 mmHg 92%
23:00 -12°C° 0 mm 2 m/s 750 mmHg 94%

11 Março, Quinta-feira

Tempo Temperatura Precipitação Vento Pressão Humidade
00:00 -14°C° 0 mm 3 m/s 750 mmHg 95%
01:00 -15°C° 0 mm 3 m/s 751 mmHg 95%
02:00 -17°C° 0 mm 3 m/s 751 mmHg 95%
03:00 -19°C° 0 mm 4 m/s 751 mmHg 95%
04:00 -20°C° 0 mm 4 m/s 751 mmHg 95%
05:00 -22°C° 0 mm 3 m/s 752 mmHg 95%
06:00 -23°C° 0 mm 3 m/s 752 mmHg 95%
07:00 -23°C° 0 mm 3 m/s 753 mmHg 94%
08:00 -24°C° 0 mm 4 m/s 753 mmHg 93%
09:00 -23°C° 0 mm 4 m/s 754 mmHg 92%
10:00 -23°C° 0 mm 4 m/s 754 mmHg 92%
11:00 -21°C° 0 mm 3 m/s 754 mmHg 91%
12:00 -19°C° 0 mm 3 m/s 754 mmHg 91%
13:00 -18°C° 0 mm 3 m/s 754 mmHg 90%
14:00 -18°C° 0 mm 3 m/s 754 mmHg 89%
15:00 -18°C° 0 mm 3 m/s 754 mmHg 88%
16:00 -19°C° 0 mm 3 m/s 755 mmHg 90%
17:00 -21°C° 0 mm 3 m/s 755 mmHg 92%
18:00 -20°C° 0 mm 2 m/s 755 mmHg 93%
19:00 -21°C° 0 mm 2 m/s 755 mmHg 93%
20:00 -23°C° 0 mm 2 m/s 755 mmHg 93%
21:00 -23°C° 0 mm 2 m/s 756 mmHg 93%
22:00 -24°C° 0 mm 2 m/s 756 mmHg 93%
23:00 -24°C° 0 mm 2 m/s 756 mmHg 93%
Mostrar mais

Necessitamos do seu Consentimento

A Meteoprog e os seus Fornecedores de Serviços podem armazenar e aceder a dados pessoais como cookies, identificadores do dispositivo ou outras tecnologias semelhantes existentes no seu dispositivo e processar estes dados para personalizar conteúdos e anúncios, assim como funcionalidades nas redes sociais e análise de tráfego.

  • Armazenar e/ou aceder a informações no seu dispositivo

    Os cookies, identificadores do dispositivo ou outras informações podem ser armazenados ou acedidos no seu dispositivo, para os fins acima indicados.

  • Anúncios e conteúdos personalizados, medição de anúncios e conteúdos, dados sobre o público-alvo e desenvolvimento de produtos

    Os anúncios e os conteúdos podem ser personalizados com base num perfil. Podem ser adicionados dados adicionais para uma maior personalização dos anúncios e dos conteúdos. A eficácia dos anúncios e dos conteúdos pode ser medida. Podem ser obtidas informações sobre o público que visualizou os anúncios e os conteúdos. Estes dados podem ser usados para desenvolver ou melhorar sistemas, softwares ou a experiência do utilizador.

Ao clicar em "Eu concordo”, permitirá o uso de cookies, identificadores do dispositivo e web beacons mencionados ou outras tecnologias semelhantes. As configurações do navegador do seu dispositivo podem ser alteradas.

Para certos fins, podem ser invocados interesses legítimos ao invés de consentimento. Pode ler mais informação sobre este assunto na nossa Política de Privacidade e Cookies.